• In Uzbekistan
  • List of Countries
  • For 7 days
  • Water Temperature
  • Satellite Maps
  • Weather Map
  • Weather Widgets
  • user-avatar
    Login

    Hourly Weather San Luis

    Today, 24 February, Saturday

    Time Temperature Precipitation Wind Pressure Humidity
    00:00 +20°C° 1.2 mm 3 mps 700 mmHg 76%
    01:00 +19°C° 1.2 mm 4 mps 700 mmHg 77%
    02:00 +19°C° 1.2 mm 4 mps 700 mmHg 79%
    03:00 +19°C° 1.2 mm 4 mps 700 mmHg 79%
    04:00 +18°C° 1.2 mm 4 mps 700 mmHg 79%
    05:00 +18°C° 1.2 mm 4 mps 700 mmHg 79%
    06:00 +19°C° 0.3 mm 4 mps 700 mmHg 74%
    07:00 +19°C° 0.3 mm 4 mps 701 mmHg 70%
    08:00 +20°C° 0.3 mm 4 mps 701 mmHg 65%
    09:00 +21°C° 0.1 mm 4 mps 701 mmHg 59%
    10:00 +23°C° 0.1 mm 4 mps 702 mmHg 53%
    11:00 +26°C° 0.1 mm 4 mps 702 mmHg 47%
    12:00 +27°C° 0.2 mm 3 mps 702 mmHg 45%
    13:00 +27°C° 0.2 mm 3 mps 701 mmHg 44%
    14:00 +28°C° 0.2 mm 3 mps 701 mmHg 42%
    15:00 +27°C° 0.6 mm 3 mps 701 mmHg 45%
    16:00 +27°C° 0.6 mm 3 mps 700 mmHg 48%
    17:00 +26°C° 0.6 mm 3 mps 700 mmHg 50%
    18:00 +24°C° 1.2 mm 3 mps 700 mmHg 57%
    19:00 +22°C° 1.2 mm 3 mps 700 mmHg 63%
    20:00 +20°C° 1.2 mm 3 mps 700 mmHg 69%
    21:00 +20°C° 0.6 mm 3 mps 700 mmHg 69%
    22:00 +20°C° 0.6 mm 3 mps 700 mmHg 69%
    23:00 +20°C° 0.6 mm 3 mps 701 mmHg 69%

    Tomorrow, 25 February, Sunday

    Time Temperature Precipitation Wind Pressure Humidity
    00:00 +20°C° 0.7 mm 3 mps 700 mmHg 69%
    01:00 +20°C° 0.7 mm 2 mps 700 mmHg 70%
    02:00 +20°C° 0.7 mm 2 mps 700 mmHg 70%
    03:00 +20°C° 0.9 mm 2 mps 700 mmHg 71%
    04:00 +20°C° 0.9 mm 2 mps 700 mmHg 71%
    05:00 +19°C° 0.9 mm 2 mps 700 mmHg 72%
    06:00 +20°C° 0.8 mm 2 mps 700 mmHg 70%
    07:00 +21°C° 0.8 mm 3 mps 701 mmHg 69%
    08:00 +21°C° 0.8 mm 3 mps 701 mmHg 67%
    09:00 +24°C° 0.1 mm 3 mps 701 mmHg 59%
    10:00 +25°C° 0.1 mm 4 mps 702 mmHg 51%
    11:00 +27°C° 0.1 mm 5 mps 702 mmHg 44%
    12:00 +28°C° 0.5 mm 5 mps 701 mmHg 42%
    13:00 +29°C° 0.5 mm 4 mps 701 mmHg 40%
    14:00 +29°C° 0.5 mm 4 mps 701 mmHg 38%
    15:00 +29°C° 0.5 mm 5 mps 700 mmHg 39%
    16:00 +29°C° 0.5 mm 5 mps 700 mmHg 39%
    17:00 +29°C° 0.5 mm 5 mps 699 mmHg 40%
    18:00 +27°C° 0.1 mm 5 mps 699 mmHg 45%
    19:00 +25°C° 0.1 mm 5 mps 699 mmHg 50%
    20:00 +22°C° 0.1 mm 5 mps 699 mmHg 55%
    21:00 +22°C° 0.4 mm 5 mps 699 mmHg 56%
    22:00 +21°C° 0.4 mm 4 mps 699 mmHg 58%
    23:00 +21°C° 0.4 mm 4 mps 699 mmHg 59%

    Day after tomorrow, 26 February, Monday

    Time Temperature Precipitation Wind Pressure Humidity
    00:00 +21°C° 0.7 mm 4 mps 699 mmHg 60%
    01:00 +21°C° 0.7 mm 4 mps 699 mmHg 60%
    02:00 +20°C° 0.7 mm 3 mps 699 mmHg 61%
    03:00 +20°C° 0.5 mm 3 mps 698 mmHg 61%
    04:00 +20°C° 0.5 mm 3 mps 698 mmHg 61%
    05:00 +20°C° 0.5 mm 3 mps 698 mmHg 61%
    06:00 +21°C° 0.3 mm 3 mps 698 mmHg 57%
    07:00 +22°C° 0.3 mm 4 mps 699 mmHg 54%
    08:00 +25°C° 0.3 mm 4 mps 699 mmHg 51%
    09:00 +27°C° 0 mm 5 mps 699 mmHg 44%
    10:00 +29°C° 0 mm 5 mps 699 mmHg 36%
    11:00 +32°C° 0 mm 6 mps 699 mmHg 29%
    12:00 +33°C° 0 mm 6 mps 699 mmHg 28%
    13:00 +33°C° 0 mm 6 mps 698 mmHg 27%
    14:00 +34°C° 0 mm 5 mps 697 mmHg 26%
    15:00 +34°C° 0 mm 5 mps 697 mmHg 26%
    16:00 +34°C° 0 mm 4 mps 696 mmHg 26%
    17:00 +34°C° 0 mm 3 mps 695 mmHg 27%
    18:00 +31°C° 0.1 mm 3 mps 695 mmHg 31%
    19:00 +28°C° 0.1 mm 3 mps 695 mmHg 35%
    20:00 +26°C° 0.1 mm 3 mps 695 mmHg 39%
    21:00 +26°C° 0.1 mm 3 mps 695 mmHg 40%
    22:00 +25°C° 0.1 mm 3 mps 695 mmHg 41%
    23:00 +25°C° 0.1 mm 4 mps 696 mmHg 42%

    27 February, Tuesday

    Time Temperature Precipitation Wind Pressure Humidity
    00:00 +23°C° 0.3 mm 4 mps 696 mmHg 45%
    01:00 +23°C° 0.3 mm 4 mps 696 mmHg 48%
    02:00 +23°C° 0.3 mm 4 mps 695 mmHg 51%
    03:00 +22°C° 0.3 mm 4 mps 695 mmHg 53%
    04:00 +22°C° 0.3 mm 4 mps 695 mmHg 56%
    05:00 +22°C° 0.3 mm 4 mps 695 mmHg 58%
    06:00 +22°C° 0.6 mm 4 mps 696 mmHg 58%
    07:00 +23°C° 0.6 mm 4 mps 697 mmHg 59%
    08:00 +23°C° 0.6 mm 4 mps 697 mmHg 59%
    09:00 +26°C° 0.3 mm 3 mps 698 mmHg 54%
    10:00 +27°C° 0.3 mm 3 mps 698 mmHg 49%
    11:00 +29°C° 0.3 mm 3 mps 699 mmHg 44%
    12:00 +29°C° 0 mm 3 mps 698 mmHg 41%
    13:00 +30°C° 0 mm 3 mps 698 mmHg 39%
    14:00 +31°C° 0 mm 3 mps 698 mmHg 36%
    15:00 +30°C° 0.4 mm 4 mps 697 mmHg 40%
    16:00 +28°C° 0.4 mm 5 mps 697 mmHg 45%
    17:00 +27°C° 0.4 mm 5 mps 697 mmHg 49%
    18:00 +26°C° 1 mm 6 mps 697 mmHg 55%
    19:00 +24°C° 1 mm 6 mps 697 mmHg 61%
    20:00 +22°C° 1 mm 6 mps 698 mmHg 68%
    21:00 +22°C° 1.7 mm 5 mps 698 mmHg 71%
    22:00 +21°C° 1.7 mm 4 mps 698 mmHg 75%
    23:00 +20°C° 1.7 mm 3 mps 699 mmHg 79%

    28 February, Wednesday

    Time Temperature Precipitation Wind Pressure Humidity
    00:00 +20°C° 1.6 mm 3 mps 699 mmHg 81%
    01:00 +20°C° 1.6 mm 3 mps 698 mmHg 82%
    02:00 +20°C° 1.6 mm 2 mps 698 mmHg 84%
    03:00 +20°C° 1 mm 2 mps 699 mmHg 83%
    04:00 +20°C° 1 mm 2 mps 699 mmHg 83%
    05:00 +20°C° 1 mm 2 mps 699 mmHg 83%
    06:00 +19°C° 1.1 mm 2 mps 699 mmHg 83%
    07:00 +19°C° 1.1 mm 3 mps 700 mmHg 84%
    08:00 +19°C° 1.1 mm 3 mps 700 mmHg 84%
    09:00 +20°C° 1.8 mm 3 mps 700 mmHg 83%
    10:00 +20°C° 1.8 mm 3 mps 700 mmHg 82%
    11:00 +20°C° 1.8 mm 3 mps 700 mmHg 81%
    12:00 +20°C° 1 mm 3 mps 700 mmHg 78%
    13:00 +21°C° 1 mm 3 mps 700 mmHg 76%
    14:00 +21°C° 1 mm 3 mps 699 mmHg 73%
    15:00 +21°C° 0.4 mm 3 mps 699 mmHg 71%
    16:00 +22°C° 0.4 mm 3 mps 699 mmHg 70%
    17:00 +22°C° 0.4 mm 3 mps 699 mmHg 69%
    18:00 +21°C° 0.9 mm 3 mps 699 mmHg 73%
    19:00 +20°C° 0.9 mm 3 mps 699 mmHg 77%
    20:00 +20°C° 0.9 mm 2 mps 699 mmHg 80%
    21:00 +19°C° 0.4 mm 2 mps 699 mmHg 80%
    22:00 +19°C° 0.4 mm 2 mps 699 mmHg 80%
    23:00 +19°C° 0.4 mm 2 mps 699 mmHg 80%

    1 March, Thursday

    Time Temperature Precipitation Wind Pressure Humidity
    00:00 +19°C° 0.2 mm 2 mps 699 mmHg 80%
    01:00 +18°C° 0.2 mm 2 mps 698 mmHg 81%
    02:00 +18°C° 0.2 mm 2 mps 698 mmHg 81%
    03:00 +18°C° 0.2 mm 2 mps 697 mmHg 82%
    04:00 +18°C° 0.2 mm 2 mps 697 mmHg 83%
    05:00 +17°C° 0.2 mm 3 mps 697 mmHg 83%
    06:00 +18°C° 0 mm 3 mps 698 mmHg 80%
    07:00 +19°C° 0 mm 3 mps 698 mmHg 77%
    08:00 +20°C° 0 mm 4 mps 698 mmHg 74%
    09:00 +22°C° 0 mm 4 mps 698 mmHg 67%
    10:00 +23°C° 0 mm 4 mps 699 mmHg 59%
    11:00 +26°C° 0 mm 4 mps 699 mmHg 51%
    12:00 +27°C° 0 mm 4 mps 698 mmHg 47%
    13:00 +28°C° 0 mm 4 mps 698 mmHg 44%
    14:00 +29°C° 0 mm 4 mps 698 mmHg 41%
    15:00 +29°C° 0 mm 3 mps 697 mmHg 40%
    16:00 +29°C° 0 mm 3 mps 697 mmHg 39%
    17:00 +29°C° 0 mm 2 mps 697 mmHg 38%
    18:00 +27°C° 0 mm 2 mps 697 mmHg 44%
    19:00 +25°C° 0 mm 2 mps 697 mmHg 50%
    20:00 +23°C° 0 mm 1 mps 697 mmHg 56%
    21:00 +23°C° 0 mm 2 mps 697 mmHg 57%
    22:00 +23°C° 0 mm 2 mps 697 mmHg 58%
    23:00 +21°C° 0 mm 2 mps 698 mmHg 58%
    Show more